Location: Dumpton Point
(51.3500°N, 1.4433°E)
Time: 23:43:33
(UTC+00:00)

Tiros 1 despin weight - Pass Details

Date: 25 April 2021
Orbit: 593 x 642 km, 48.2° (Epoch: 07 May)

Event Time Altitude Azimuth Distance (km) Brightness Sun altitude
Exits shadow 03:26:24 12° 207° (SSW) 1,910 ? -10.5°
Maximum altitude 03:30:00 27° 151° (SSE) 1,197 ? -10.1°
Drops below altitude 10° 03:33:52 10° 94° (E) 1,992 ? -9.6°
Sets 03:36:25 0° 82° (E) 2,891 ? -9.2°
